This demonstration page uses our WeatherBlox Daily Observations layout. Learn more.

Left ArrowRight Arrow

Hourly Observations for May 28, 2022

Temp ( °F °C ) Dew Point ( °F °C ) Humidity (%) Winds ( mph kmh ) Pressure ( in mb ) Visibility ( mi km ) Precip ( " mm )
12:52 am 00:52 Clear 57 13.9 54 12.2 90 90 SSE 5 7 29.93 1014 10 16 0.00 0.00
1:52 am 01:52 Clear 57 13.9 54 12.2 90 90 SSE 6 9 29.92 1013 10 16 0.00 0.00
2:52 am 02:52 Clear 55 12.8 53 11.7 93 93 SSE 6 9 29.92 1013 10 16 0.00 0.00
3:52 am 03:52 Clear 56 13.3 54 12.2 93 93 SE 8 13 29.91 1013 10 16 0.00 0.00
4:52 am 04:52 Clear 55 12.8 53 11.7 93 93 SSE 9 15 29.91 1013 10 16 0.00 0.00
5:52 am 05:52 Clear 55 12.8 52 11.1 90 90 SSE 9 15 29.91 1013 10 16 0.00 0.00
6:52 am 06:52 Sunny 56 13.3 53 11.7 90 90 S 7 11 29.93 1014 10 16 0.00 0.00
7:52 am 07:52 Sunny 59 15 56 13.3 90 90 S 9 15 29.95 1014 10 16 0.00 0.00
8:52 am 08:52 Sunny 65 18.3 57 13.9 76 76 SSE 8 13 29.96 1015 10 16 0.00 0.00
9:52 am 09:52 Sunny 68 20 59 15 73 73 SSE 14 22 29.95 1014 10 16 0.00 0.00
10:52 am 10:52 Sunny 71 21.7 59 15 66 66 SSE 18 30 29.87 1012 10 16 0.00 0.00
11:52 am 11:52 Sunny 74 23.3 58 14.4 57 57 SSE 18 30 29.84 1010 10 16 0.00 0.00
12:52 pm 12:52 Sunny 73 22.8 60 15.6 64 64 SSE 15 24 29.85 1011 10 16 0.00 0.00
1:52 pm 13:52 Sunny 74 23.3 59 15 60 60 S 20 31 29.83 1010 10 16 0.00 0.00
2:52 pm 14:52 Sunny 76 24.4 61 16.1 60 60 S 20 31 29.79 1009 10 16 0.00 0.00
3:52 pm 15:52 Sunny 77 25 62 16.7 60 60 S 15 24 29.76 1008 10 16 0.00 0.00
4:52 pm 16:52 Sunny 78 25.6 63 17.2 60 60 SSE 20 31 29.74 1007 10 16 0.00 0.00
5:52 pm 17:52 Sunny 78 25.6 64 17.8 62 62 SSE 18 30 29.72 1006 10 16 0.00 0.00
6:52 pm 18:52 Sunny 77 25 61 16.1 58 58 SSE 15 24 29.71 1006 10 16 0.00 0.00
7:52 pm 19:52 Sunny 75 23.9 62 16.7 64 64 SSE 15 24 29.72 1007 10 16 0.00 0.00
8:52 pm 20:52 Clear 72 22.2 62 16.7 71 71 SSE 15 24 29.72 1007 10 16 0.00 0.00
9:52 pm 21:52 Clear 71 21.7 61 16.1 71 71 SSE 17 28 29.73 1007 10 16 0.00 0.00
10:52 pm 22:52 Clear 69 20.6 61 16.1 76 76 SSE 15 24 29.74 1007 10 16 0.00 0.00
11:52 pm 23:52 Clear 68 20 61 16.1 78 78 SSE 18 30 29.73 1007 10 16 0.00 0.00

Powered by AerisWeather